sat.trackr.live / text

‹ back to catalog

QIANFAN-116

NORAD 68643 · 2026-075H

PAYLOAD ACTIVE UNKNOWN

§ Identity

Operator
Country
PRC
Launch date
2026-04-07
Launch site
WSC
Launch vehicle
Mass (kg)
RCS (m²)

External: N2YO · Heavens-Above · Gunter

§ Orbital elements

Epoch: 2026-09-20T02:52:18.376032Z

Period
106.59 min
Inclination
88.9856°
Eccentricity
0.0002328
Mean motion
13.51025165 rev/d
Perigee alt
1,066.8 km
Apogee alt
1,070.2 km
Semi-major
7,446.6 km
B*
3.9923e-5
RAAN
311.2881°
Arg perigee
87.6301°
Mean anomaly
272.5117°
Rev number
2,262

§ Raw data

QIANFAN-1161 68643U 26075H   26263.11965713  .00000038  00000+0  39923-4 0  99992 68643  88.9856 311.2881 0002328  87.6301 272.5117 13.51025165 22623

JSON: /api/v1/satellites/68643 · /tle

For live sub-satellite position, see the globe view (requires WebGL).

§ Visibility from observer

Set your observer location to see the next 7 days of passes ≥ 10°. The values pass through the URL so the page stays shareable.

No JS? Fill the form by hand. The geolocation button needs JavaScript.